Flag for Belgium Weather past 2 weeks in Kortrijk, Belgium

Now
39 °F

Passing clouds.


Feels Like: 34 °F
Forecast: 36 / 46 °F
Wind: 8 mph from Southwest

Location: Lille Airport

Current Time: Mar 2, 2015 at 6:57:21 AM

Latest Report: Mar 2, 2015 at 6:30 AM


Visibility: N/A

Pressure: 29.65 "Hg

Humidity: 87%

Dew point: 36 °F

Location of KortrijkLocation

Historic Weather in Kortrijk — Graph

°F

Kortrijk temperature yesterday

Maximum temperature yesterday: 52 °F (at 2:00 PM)
Minimum temperature yesterday: 45 °F (at 12:00 AM)
Average temperature yesterday: 48 °F

Past Weeks' High & Low Weather Summary

 TemperatureHumidityPressure
High52 °F (Mar 1, 2:00 PM)100% (Feb 15, 8:30 AM)30.77 "Hg (Feb 15, 8:30 AM)
Low27 °F (Feb 18, 5:00 AM)53% (Feb 27, 4:00 PM)29.36 "Hg (Feb 23, 4:00 AM)
Average40 °F88%29.94 "Hg
* Reported Feb 15 5:00 AM — Mar 2 5:30 AM, Kortrijk, Weather by CustomWeather, © 2015

Note: Actual official high and low records may vary slightly from our data, if they occured in-between our weather recording intervals... More about our weather records

Advertising

Kortrijk weather history for previous 24 hours

 ConditionsComfort  
Time TempWeatherWind HumidityBarometerVisibility
5:30 AM
Mon, Mar 2
41 °FPassing clouds.12 mph81%29.65 "HgN/A
5:00 AM41 °FPartly cloudy.15 mph81%29.62 "HgN/A
4:30 AM41 °FClear.15 mph87%29.62 "HgN/A
4:00 AM43 °FClear.16 mph81%29.62 "Hg10 mi
3:30 AM43 °FClear.15 mph81%29.62 "HgN/A
3:00 AM43 °FPartly cloudy.22 mph81%29.62 "HgN/A
2:30 AM43 °FClear.13 mph87%29.59 "HgN/A
2:00 AM45 °FClear.16 mph76%29.59 "HgN/A
1:30 AM45 °FClear.16 mph81%29.59 "HgN/A
1:00 AM45 °FClear.15 mph81%29.56 "Hg10 mi
12:30 AM45 °FClear.21 mph81%29.56 "HgN/A
12:00 AM46 °FPartly cloudy.18 mph82%29.56 "HgN/A
11:30 PM
Sun, Mar 1
46 °FLight rain. Partly cloudy.25 mph82%29.53 "HgN/A
11:00 PM48 °FLight rain. Passing clouds.18 mph87%29.53 "HgN/A
10:30 PM46 °FLight rain. Passing clouds.21 mph87%29.53 "HgN/A
10:00 PM48 °FLight rain. Passing clouds.17 mph76%29.53 "HgN/A
9:30 PM46 °FPassing clouds.15 mph76%29.53 "HgN/A
8:30 PM48 °FPassing clouds.12 mph71%29.56 "HgN/A
8:00 PM46 °FPassing clouds.8 mph76%29.59 "HgN/A
7:30 PM48 °FPassing clouds.10 mph76%29.59 "HgN/A
7:00 PM48 °FPassing clouds.7 mph76%29.59 "HgN/A
6:30 PM48 °FPassing clouds.9 mph76%29.59 "HgN/A
6:00 PM50 °FPartly sunny.16 mph71%29.62 "HgN/A
5:30 PM50 °FPartly sunny.20 mph67%29.62 "HgN/A
5:00 PM50 °FBroken clouds.22 mph62%29.62 "HgN/A
4:30 PM50 °FBroken clouds.20 mph62%29.62 "HgN/A
4:00 PM50 °FBroken clouds.23 mph62%29.65 "HgN/A
3:30 PM50 °FBroken clouds.22 mph67%29.65 "HgN/A
3:00 PM50 °FBroken clouds.21 mph67%29.65 "HgN/A
2:30 PM52 °FBroken clouds.21 mph62%29.65 "HgN/A
2:00 PM52 °FBroken clouds.23 mph62%29.65 "HgN/A
1:30 PM50 °FBroken clouds.22 mph67%29.68 "HgN/A
1:00 PM50 °FBroken clouds.22 mph67%29.68 "HgN/A
12:30 PM48 °FBroken clouds.21 mph76%29.68 "HgN/A
12:00 PM48 °FPartly sunny.21 mph76%29.68 "HgN/A
11:30 AM46 °FSprinkles. Partly sunny.18 mph82%29.68 "HgN/A
11:00 AM50 °FPartly sunny.20 mph76%29.65 "HgN/A
10:30 AM50 °FPartly sunny.15 mph71%29.65 "HgN/A
10:00 AM48 °FPartly sunny.17 mph76%29.68 "HgN/A
9:30 AM48 °FScattered clouds.17 mph76%29.68 "HgN/A
9:00 AM48 °FScattered clouds.17 mph76%29.65 "HgN/A
8:30 AM48 °FPartly sunny.21 mph76%29.65 "HgN/A
8:00 AM48 °FPartly sunny.20 mph82%29.62 "HgN/A
7:30 AM48 °FPassing clouds.18 mph82%29.62 "HgN/A
7:00 AM48 °FPassing clouds.21 mph82%29.59 "HgN/A
6:30 AM50 °FPartly cloudy.22 mph76%29.59 "HgN/A
6:00 AM50 °FMostly cloudy.22 mph82%29.59 "HgN/A
Weather by CustomWeather, © 2015

See weather overviewHow to use our weather pages